Tracking 23645 objects as of 21-Sep-2021
HD Live streaming from Space Station
objects crossing your sky now

EKRAN 7

Track EKRAN 7 now!
EKRAN 7 is classified as:


NORAD ID: 12564
Int'l Code: 1981-061A
Perigee: 35,771.2 km
Apogee: 35,805.4 km
Inclination: 10.5 °
Period: 1,435.8 minutes
Semi major axis: 42159 km
RCS: 3.9811 m2 (large)
Launch date: June 26, 1981
Source: Commonwealth of Independent States (former USSR) (CIS)
Launch site: TYURATAM MISSILE AND SPACE COMPLEX (TTMTR)
aabbcc
Your satellite tracking list
Your tracking list is empty




NASA's NSSDC Master Catalog

Two Line Element Set (TLE):
1 12564U 81061A   21264.54364024 -.00000327  00000-0  00000-0 0  9990
2 12564  10.5230 310.2656 0004046  70.3322 274.5821  1.00291192112160
Source of the keplerian elements: AFSPC